Regional Weather Roundup
Issued by NWS

Home | Current Version | Previous Version | Text Only | Print | Product List | Glossary Off
Versions: 1 2 3 4 5 6 7 8 9 10 11 12 13 14 15 16 17 18 19 20 21 22 23 24 25 26 27 28 29 30 31 32 33 34 35 36 37 38 39 40 41 42 43 44 45 46 47 48 49 50

000
ASUS45 KPSR 221400
RWRAZ

PRELIMINARY ARIZONA REGIONAL HOURLY WEATHER ROUNDUP
NATIONAL WEATHER SERVICE PHOENIX AZ
700 AM MST WED OCT 22 2014

NOTE: FAIR INDICATES FEW OR NO CLOUDS BELOW 12,000 FEET WITH NO
SIGNIFICANT WEATHER AND/OR OBSTRUCTIONS TO VISIBILITY.

AZZ001>003-036-221500-
NORTHWEST ARIZONA

CITY           SKY/WX    TMP DP  RH WIND       PRES   REMARKS
KINGMAN        CLEAR     50  42  74 CALM      30.04R
$$

AZZ004>008-015-016-018-221500-
NORTH CENTRAL ARIZONA

CITY           SKY/WX    TMP DP  RH WIND       PRES   REMARKS
GRAND CANYON   PTCLDY    31  27  85 CALM      30.21R
PRESCOTT       CLEAR     44  38  79 CALM      30.14R
FLAGSTAFF      PTCLDY    35  32  88 CALM      30.22R
PAYSON         CLEAR     50  45  81 CALM      30.15R
PAGE           MOCLDY    57  38  48 CALM      30.08R
$$

AZZ009>014-017-221500-
NORTHEAST ARIZONA

CITY           SKY/WX    TMP DP  RH WIND       PRES   REMARKS
WINSLOW        NOT AVBL
SAINT JOHNS    MOCLDY    45  43  93 SE3       30.18R
$$

AZZ023-221500-
GREATER PHOENIX AREA

CITY           SKY/WX    TMP DP  RH WIND       PRES   REMARKS
PHOENIX        PTCLDY    69  53  56 SE3       29.90R
GLENDALE       CLEAR     63  54  72 CALM      29.93R
LUKE AFB       CLEAR     63  51  66 NW5       29.91R
DEER VALLEY    CLEAR     67  50  54 CALM      29.92R
SCOTTSDALE     CLEAR     63  53  70 CALM      29.93R
MESA-GATEWAY   CLEAR     61  54  77 SE6       29.94R
CHANDLER       CLEAR     63  55  77 CALM      29.92R
$$

AZZ027-028-221500-
SOUTHWEST MARICOPA COUNTY AND PINAL COUNTY

CITY           SKY/WX    TMP DP  RH WIND       PRES   REMARKS
CASA GRANDE    CLEAR     61  48  63 CALM      29.94R
$$

AZZ503-504-507>509-221500-
SOUTHEAST ARIZONA

CITY           SKY/WX    TMP DP  RH WIND       PRES   REMARKS
TUCSON         CLEAR     60  48  64 SE9       30.01R
DAVIS-MONTHAN  CLEAR     62  48  60 SE8       29.99R
RYAN FIELD       N/A     59  52  77 SE6       30.00R
NOGALES        CLEAR     50  32  50 MISG      30.06R
SIERRA VISTA   PTCLDY    54  46  76 CALM      30.11R
SAFFORD        CLEAR     58  52  80 SE5       30.04R
$$

AZZ020-021-025-026-031-221500-
SOUTHWEST ARIZONA

CITY           SKY/WX    TMP DP  RH WIND       PRES   REMARKS
YUMA           NOT AVBL
$$

CAZ031-033-041-043-047-048-061-221500-
SOUTHERN CALIFORNIA

CITY           SKY/WX    TMP DP  RH WIND       PRES   REMARKS
DOWNTOWN L.A.  CLEAR     60  56  86 CALM      29.90R
L.A. AIRPORT   PTCLDY    62  59  90 SE3       29.91R
SAN DIEGO      PTCLDY    64  59  83 CALM      29.92S
BURBANK        CLEAR     59  42  53 CALM      29.91R
ONTARIO        CLEAR     59  50  72 CALM      29.92R
RIVERSIDE      CLEAR     58  50  75 NE7       29.93R
PALM SPRINGS   CLEAR     70  36  28 NW6       29.88R
EL CENTRO NAS  CLEAR     63  42  46 SW6       29.84R
IMPERIAL       CLEAR     63  44  50 W5        29.84R
BLYTHE         CLEAR     67  43  41 VRB3      29.87R
$$

NVZ020-UTZ003-221500-
SOUTHERN NEVADA-UTAH

CITY           SKY/WX    TMP DP  RH WIND       PRES   REMARKS
LAS VEGAS      NOT AVBL
SALT LAKE CITY PTCLDY    39  33  79 SE7       30.17R WCI  34
$$

NMZ009-TXZ055-221500-
NEW MEXICO-WEST TEXAS

CITY           SKY/WX    TMP DP  RH WIND       PRES   REMARKS
ALBUQUERQUE    PTCLDY    53  47  79 VRB3      30.18R
EL PASO        MOCLDY    61  56  83 NE3       30.11R
$$


........................KEY........................
SKY/WX - SKY CONDITION/WEATHER
TMP    - TEMPERATURE IN FAHRENHEIT
DP     - DEW POINT IN FAHRENHEIT
RH     - RELATIVE HUMIDITY IN PERCENT
WIND   - DIRECTION AND SPEED IN MILES PER HOUR (MPH)
VRB    - VARIABLE WIND DIRECTION
PRES   - MEAN SEA LEVEL PRESSURE IN INCHES OF MERCURY
         F - FALLING PRESSURE   R - RISING PRESSURE
         S - STEADY PRESSURE
VSB    - VISIBILITY IN MILES
HX     - HEAT INDEX IN FAHRENHEIT
WCI    - WIND CHILL INDEX IN FAHRENHEIT
TC     - TEMPERATURE IN CELSIUS WHICH IS ALSO KNOWN AS
         TEMPERATURE IN CENTIGRADE
AFB    - AIR FORCE BASE
         LUKE AFB IS LUKE AIR FORCE BASE
         DAVIS-MONTHAN IS DAVIS-MONTHAN AIR FORCE BASE
NAS    - NAVAL AIR STATION
         EL CENTRO NAS IS EL CENTRO NAVAL AIR STATION
N/A    - NOT AVAILABLE



USA.gov is the U.S. government's official web portal to all federal, state and local government web resources and services.